STARLINK-31702 (59585 NORAD) Tracking and Keplerian Element Data

This shows tracking and keplerian element data for the satellite.

Feedback or suggestion? Click here.




ElementValue
Catalog59585
NameSTARLINK-31702
Epoch Orbit829
Epoch Day160.09882105
Epoch Year2024
RAAN54.1271
Inclination43.0001
Eccentricity0.000235
Argument of Perigee269.3922
Mean Anonmoly90.6666
Mean Motion15.40722949
Decay Rate5.191E-05
L11 59585U 24076X 24160.09882105 .00005191 00000+0 13135-3 0 9998
L22 59585 43.0001 54.1271 0002350 269.3922 90.6666 15.40722949 8290



Live tracking and technical data element details for STARLINK-31702 (NORAD 59585). STARLINK-31702 can be tracked NOW for your location showing map with azimuth and elevation plus other details from your city location.







IsCatalogInMostPopularTable: catalog: 59585, numindb: 13
Update: records affected: 1



GetName: 59585 STARLINK-31702

Hit Count: updated at: Fri, 14 Jun 2024 19:54:23 GMT